Jackson, TN

3:53 PM CDT on March 28, 2017 (GMT -0500)
McKellar-Sipes Regional

Weather History for KMKL - March, 2014

Change the Weather History Date:

Monday, March 24, 2014

  Actual Average Record
Temperature  
Mean Temperature 41 °F 53 °F  
Max Temperature 55 °F 65 °F 84 °F (2007)
Min Temperature 27 °F 41 °F 15 °F (1968)
Degree Days  
Heating Degree Days 24 12  
Month to date heating degree days 483 367  
Since 1 July heating degree days 3779 3251  
Cooling Degree Days 0 0  
Month to date cooling degree days 0 0  
Year to date cooling degree days 0 1  
Moisture  
Dew Point 18 °F    
Average Humidity 44    
Maximum Humidity 69    
Minimum Humidity 19    
Precipitation  
Precipitation 0.00 in 0.15 in 2.11 in (1994)
Month to date precipitation 4.14 3.59  
Year to date precipitation 12.30 11.83  
Snow  
Snow 0.00 in - - ()
Month to date snowfall 0.8  
Snow Depth 0.00 in    
Sea Level Pressure  
Sea Level Pressure 30.22 in    
Wind  
Wind Speed 7 mph (NNE)    
Max Wind Speed 16 mph    
Max Gust Speed 20 mph    
Visibility 10 miles    
Events      
T = Trace of Precipitation, MM = Missing Value Source: NWS Daily Summary

Daily Weather History Graph

Daily Weather History Graph

Search for Another Location

Airport or City:

Trip Planner

Search our weather history database for the weather conditions in past years. The results will help you decide how hot, cold, wet, or windy it might be!

Date:

Astronomy

Mar. 24, 2014 Rise Set
Actual Time 6:53 AM CDT 7:10 PM CDT
Civil Twilight 6:28 AM CDT 7:36 PM CDT
Nautical Twilight 5:58 AM CDT 8:06 PM CDT
Astronomical Twilight 5:28 AM CDT 8:36 PM CDT
Moon 2:12 AM CDT (3/24) 12:47 PM CDT (3/24)
Length of Visible Light 13h 08m
Length of Day
12h 17m
Last Quarter, 43% of the Moon is Illuminated
Mar 24
Last Quarter
Mar 30
New
Apr 7
First Quarter
Apr 15
Full
Apr 22
Last Quarter

Hourly Weather History & Observations

Time (CDT) Temp. Windchill Dew Point Humidity Pressure Visibility Wind Dir Wind Speed Gust Speed Precip Events Conditions
12:53 AM 34.0 °F 29.8 °F 21.0 °F 59% 30.30 in 10.0 mi NNE 4.6 mph - N/A   Clear
1:53 AM 32.0 °F 28.7 °F 19.9 °F 61% 30.31 in 10.0 mi NNE 3.5 mph - N/A   Clear
2:53 AM 32.0 °F 27.5 °F 21.0 °F 64% 30.30 in 10.0 mi NE 4.6 mph - N/A   Clear
3:53 AM 30.9 °F 25.2 °F 21.0 °F 67% 30.29 in 10.0 mi NE 5.8 mph - N/A   Clear
4:53 AM 30.9 °F 27.5 °F 19.0 °F 61% 30.30 in 10.0 mi ENE 3.5 mph - N/A   Clear
5:53 AM 28.0 °F 24.2 °F 19.0 °F 69% 30.31 in 10.0 mi NE 3.5 mph - N/A   Clear
6:53 AM 28.0 °F - 19.0 °F 69% 30.31 in 10.0 mi Calm Calm - N/A   Clear
7:53 AM 32.0 °F 26.4 °F 21.9 °F 66% 30.32 in 10.0 mi NE 5.8 mph - N/A   Clear
8:53 AM 37.0 °F 29.8 °F 21.0 °F 52% 30.33 in 10.0 mi NE 10.4 mph - N/A   Clear
9:53 AM 41.0 °F 34.3 °F 19.9 °F 43% 30.32 in 10.0 mi ENE 11.5 mph - N/A   Clear
10:53 AM 45.0 °F 40.1 °F 18.0 °F 34% 30.31 in 10.0 mi East 9.2 mph - N/A   Clear
11:53 AM 46.9 °F - 14.0 °F 27% 30.27 in 10.0 mi ENE 8.1 mph - N/A   Clear
12:53 PM 50.0 °F - 15.1 °F 25% 30.22 in 10.0 mi ESE 5.8 mph - N/A   Clear
1:53 PM 52.0 °F - 14.0 °F 22% 30.19 in 10.0 mi North 4.6 mph - N/A   Clear
2:53 PM 51.1 °F - 12.9 °F 22% 30.15 in 10.0 mi Calm Calm - N/A   Mostly Cloudy
3:53 PM 54.0 °F - 12.9 °F 20% 30.11 in 10.0 mi Variable 6.9 mph - N/A   Scattered Clouds
4:53 PM 52.0 °F - 14.0 °F 22% 30.08 in 10.0 mi North 10.4 mph - N/A   Mostly Cloudy
5:53 PM 51.1 °F - 15.1 °F 24% 30.08 in 10.0 mi North 12.7 mph - N/A   Mostly Cloudy
6:53 PM 48.9 °F - 15.1 °F 26% 30.09 in 10.0 mi NNW 8.1 mph - N/A   Partly Cloudy
7:53 PM 46.9 °F - 16.0 °F 29% 30.11 in 10.0 mi NNW 9.2 mph - N/A   Scattered Clouds
8:53 PM 46.9 °F - 19.0 °F 33% 30.13 in 10.0 mi North 13.8 mph - N/A   Mostly Cloudy
9:53 PM 45.0 °F 39.7 °F 19.0 °F 36% 30.14 in 10.0 mi North 10.4 mph - N/A   Overcast
10:53 PM 44.1 °F 39.0 °F 17.1 °F 34% 30.14 in 10.0 mi North 9.2 mph - N/A   Overcast
11:53 PM 39.9 °F 35.1 °F 19.0 °F 43% 30.12 in 10.0 mi North 6.9 mph - N/A   Scattered Clouds